Location: Bow
(51.5261°N, 0.0167°W)
Time: 01:27:06
(UTC+00:00)

MetOp-A - Visible Passes

Search period start: 22 January 2021 00:00
Search period end: 01 February 2021 00:00
Orbit: 819 x 821 km, 98.5° (Epoch: 21 January)

Date Brightness Start Highest point End Pass type
(mag) Time Alt. Az. Time Alt. Az. Time Alt. Az.
22 Jan 5.0 18:22:09 27° ENE 18:22:36 27° ENE 18:27:00 10° N visible
22 Jan 4.9 20:03:30 49° NW 20:03:30 49° NW 20:07:42 10° NNW visible
23 Jan 5.4 18:00:59 19° ENE 18:02:07 20° NE 18:05:55 10° N visible
23 Jan 4.3 19:42:20 68° NNW 19:42:20 68° NNW 19:47:00 10° NNW visible
23 Jan 6.8 21:23:40 14° WNW 21:23:40 14° WNW 21:25:36 10° NW visible
24 Jan 5.7 17:39:48 13° ENE 17:41:42 15° NE 17:44:37 10° NNE visible
24 Jan 4.0 19:21:09 67° NE 19:21:09 67° NE 19:26:15 10° N visible
24 Jan 6.4 21:02:30 21° WNW 21:02:30 21° WNW 21:05:38 10° NW visible
25 Jan 5.9 17:19:56 10° ENE 17:21:20 11° NE 17:22:46 10° NNE visible
25 Jan 4.3 18:59:58 48° ENE 19:00:16 48° ENE 19:05:25 10° N visible
25 Jan 5.8 20:41:19 30° WNW 20:41:19 30° WNW 20:45:20 10° NNW visible
26 Jan 7.1 07:08:34 10° ENE 07:10:54 13° E 07:13:15 10° ESE visible
26 Jan 4.7 18:38:48 33° E 18:39:41 35° ENE 18:44:30 10° N visible
26 Jan 5.1 20:20:09 43° W 20:20:09 43° W 20:24:51 10° NNW visible
27 Jan 5.1 18:17:36 22° E 18:19:09 26° ENE 18:23:31 10° N visible
27 Jan 4.4 19:58:57 64° W 19:58:57 64° W 20:04:15 10° NNW visible
27 Jan 7.0 21:40:18 11° W 21:40:18 11° W 21:41:18 10° WNW visible
28 Jan 5.4 17:56:25 15° E 17:58:42 19° NE 18:02:23 10° N visible
28 Jan 4.0 19:37:46 79° SSE 19:38:08 90° WSW 19:43:33 10° NNW visible
28 Jan 6.6 21:19:07 16° W 21:19:07 16° W 21:22:17 10° NW visible
29 Jan 5.7 17:35:32 10° E 17:38:17 14° NE 17:41:03 10° NNE visible
29 Jan 4.0 19:16:35 56° ESE 19:17:27 65° ENE 19:22:46 10° N visible
29 Jan 6.2 20:57:55 23° W 20:58:02 23° W 21:02:15 10° NW visible
30 Jan 4.4 18:55:23 37° ESE 18:56:50 46° ENE 19:01:56 10° N visible
30 Jan 5.6 20:36:44 32° WSW 20:37:06 33° W 20:41:55 10° NNW visible
31 Jan 4.8 18:34:11 25° ESE 18:36:15 33° ENE 18:41:00 10° N visible
31 Jan 5.0 20:15:32 44° WSW 20:16:13 47° W 20:21:25 10° NNW visible
